Fryeburg, ME

9:12 AM EST on January 17, 2018 (GMT -0500)
Eastern Slopes Regional

Weather History for KIZG - September, 2012

Change the Weather History Date:

Wednesday, September 19, 2012

  Actual Average Record
Temperature  
Mean Temperature 53 °F -  
Max Temperature 69 °F 69 °F 82 °F (2002)
Min Temperature 37 °F 43 °F 28 °F (2014)
Degree Days  
Heating Degree Days 12    
Growing Degree Days 3 (Base 50)    
Moisture  
Dew Point 47 °F    
Average Humidity 83    
Maximum Humidity 100    
Minimum Humidity 31    
Precipitation  
Precipitation 1.25 in - - ()
Sea Level Pressure  
Sea Level Pressure 29.99 in    
Wind  
Wind Speed 6 mph (WSW)    
Max Wind Speed 14 mph    
Max Gust Speed 25 mph    
Visibility 6 miles    
Events Fog , Rain    
Averages and records for this station are not official NWS values.
T = Trace of Precipitation, MM = Missing Value Source: NWS Daily Summary

Daily Weather History Graph

Daily Weather History Graph

Search for Another Location

Airport or City:

Trip Planner

Search our weather history database for the weather conditions in past years. The results will help you decide how hot, cold, wet, or windy it might be!

Date:

Astronomy

Sep. 19, 2012 Rise Set
Actual Time 6:28 AM EDT 6:45 PM EDT
Civil Twilight 5:59 AM EDT 7:14 PM EDT
Nautical Twilight 5:25 AM EDT 7:48 PM EDT
Astronomical Twilight 4:50 AM EDT 8:23 PM EDT
Moon 10:45 AM EDT (9/19) 8:41 PM EDT (9/19)
Length of Visible Light 13h 15m
Length of Day
12h 17m
Waxing Crescent, 17% of the Moon is Illuminated
Sep 19
Waxing Crescent
Sep 22
First Quarter
Sep 29
Full
Oct 8
Last Quarter
Oct 15
New

Hourly Weather History & Observations

Time (EDT) Temp. Windchill Dew Point Humidity Pressure Visibility Wind Dir Wind Speed Gust Speed Precip Events Conditions
12:03 AM 68.0 °F - 66.2 °F 94% 29.66 in 2.0 mi SW 11.5 mph 18.4 mph 0.13 in Rain Heavy Rain
12:20 AM 66.2 °F - 66.2 °F 100% 29.64 in 1.0 mi SW 6.9 mph - 0.60 in Rain Heavy Rain
12:41 AM 68.0 °F - 66.2 °F 94% 29.64 in 2.0 mi South 11.5 mph 21.9 mph 1.02 in Rain Heavy Rain
12:51 AM 66.2 °F - 66.2 °F 100% 29.64 in 4.0 mi South 4.6 mph - 1.05 in Rain Rain
12:54 AM 66.9 °F - 66.9 °F 100% 29.64 in 6.0 mi SW 4.6 mph - 1.06 in Rain Rain
1:02 AM 68.0 °F - 66.2 °F 94% 29.64 in 5.0 mi SSW 6.9 mph - 0.02 in Rain Rain
1:54 AM 68.0 °F - 66.9 °F 96% 29.64 in 5.0 mi South 8.1 mph 19.6 mph 0.15 in Rain Light Rain
2:14 AM 69.8 °F - 66.2 °F 88% 29.64 in 10.0 mi SSW 6.9 mph - 0.00 in   Overcast
2:54 AM 66.9 °F - 64.9 °F 93% 29.65 in 10.0 mi SSW 3.5 mph - 0.04 in   Overcast
3:54 AM 66.0 °F - 64.9 °F 96% 29.67 in 10.0 mi South 4.6 mph - N/A   Overcast
4:54 AM 66.0 °F - 64.0 °F 93% 29.68 in 10.0 mi SSW 8.1 mph - N/A   Overcast
5:14 AM 66.2 °F - 64.4 °F 94% 29.70 in 10.0 mi WSW 5.8 mph - N/A   Overcast
5:44 AM 62.6 °F - 59.0 °F 88% 29.73 in 10.0 mi WSW 6.9 mph - 0.00 in   Overcast
5:54 AM 62.1 °F - 57.9 °F 86% 29.73 in 10.0 mi WSW 9.2 mph - 0.00 in   Overcast
6:54 AM 62.1 °F - 57.0 °F 84% 29.76 in 10.0 mi West 6.9 mph - N/A   Overcast
7:54 AM 61.0 °F - 54.0 °F 78% 29.81 in 10.0 mi West 5.8 mph - N/A   Overcast
8:54 AM 60.1 °F - 46.9 °F 62% 29.85 in 10.0 mi West 8.1 mph 16.1 mph N/A   Overcast
9:54 AM 61.0 °F - 48.0 °F 62% 29.88 in 10.0 mi West 6.9 mph - N/A   Overcast
10:54 AM 62.1 °F - 44.1 °F 52% 29.91 in 10.0 mi WNW 12.7 mph 25.3 mph N/A   Clear
11:54 AM 64.0 °F - 42.1 °F 45% 29.94 in 10.0 mi WNW 13.8 mph 20.7 mph N/A   Clear
12:54 PM 64.9 °F - 41.0 °F 42% 29.98 in 10.0 mi West 10.4 mph 18.4 mph N/A   Clear
1:54 PM 64.9 °F - 37.0 °F 36% 30.01 in 10.0 mi WNW 10.4 mph 20.7 mph N/A   Clear
2:54 PM 66.0 °F - 37.9 °F 36% 30.03 in 10.0 mi WNW 8.1 mph 18.4 mph N/A   Clear
3:54 PM 64.0 °F - 34.0 °F 33% 30.05 in 10.0 mi WNW 10.4 mph 19.6 mph N/A   Clear
4:54 PM 63.0 °F - 32.0 °F 31% 30.08 in 10.0 mi WNW 11.5 mph 18.4 mph N/A   Clear
5:54 PM 61.0 °F - 32.0 °F 34% 30.11 in 10.0 mi WNW 6.9 mph - N/A   Clear
6:54 PM 52.0 °F - 39.9 °F 63% 30.13 in 10.0 mi NW 3.5 mph - N/A   Clear
7:54 PM 45.0 °F - 39.9 °F 82% 30.17 in 10.0 mi Calm Calm - N/A   Clear
8:54 PM 42.1 °F - 39.9 °F 92% 30.20 in 10.0 mi Calm Calm - N/A   Clear
9:54 PM 41.0 °F - 39.9 °F 96% 30.22 in 10.0 mi Calm Calm - N/A   Clear
10:02 PM 41.0 °F - 39.2 °F 93% 30.21 in 1.0 mi Calm Calm - N/A   Mist
10:09 PM 39.2 °F - 39.2 °F 100% 30.21 in 0.5 mi Calm Calm - N/A Fog Fog
10:25 PM 39.2 °F - 39.2 °F 100% 30.22 in 1.2 mi Calm Calm - N/A   Partly Cloudy
10:28 PM 39.2 °F - 39.2 °F 100% 30.22 in 4.0 mi Calm Calm - N/A   Partly Cloudy
10:54 PM 39.9 °F - 39.0 °F 97% 30.24 in 2.5 mi Calm Calm - N/A   Partly Cloudy
11:03 PM 39.2 °F - 37.4 °F 93% 30.23 in 0.8 mi Calm Calm - N/A   Mist
11:12 PM 37.4 °F 34.9 °F 37.4 °F 100% 30.23 in 0.2 mi West 3.5 mph - N/A Fog Fog
11:19 PM 37.4 °F - 37.4 °F 100% 30.23 in 1.0 mi Calm Calm - N/A   Mist
11:21 PM 37.4 °F - 37.4 °F 100% 30.23 in 1.5 mi Calm Calm - N/A   Scattered Clouds
11:24 PM 37.4 °F 34.9 °F 37.4 °F 100% 30.23 in 3.0 mi West 3.5 mph - N/A   Scattered Clouds
11:26 PM 37.4 °F - 37.4 °F 100% 30.23 in 1.8 mi Calm Calm - N/A   Scattered Clouds
11:28 PM 37.4 °F - 37.4 °F 100% 30.24 in 0.8 mi Calm Calm - N/A   Mist
11:37 PM 37.4 °F - 37.4 °F 100% 30.24 in 1.5 mi Calm Calm - N/A   Partly Cloudy
11:42 PM 37.4 °F - 37.4 °F 100% 30.23 in 1.0 mi Calm Calm - N/A   Mist
11:50 PM 37.4 °F - 37.4 °F 100% 30.24 in 2.0 mi Calm Calm - N/A   Partly Cloudy
11:51 PM 37.4 °F - 37.4 °F 100% 30.24 in 3.0 mi Calm Calm - N/A   Partly Cloudy
11:54 PM 37.9 °F - 37.0 °F 97% 30.25 in 8.0 mi Calm Calm - N/A   Partly Cloudy